Tracking 19245 objects as of 18-Aug-2018
HD Live streaming from Space Station
objects crossing your sky now

ARIANE 5 R/B

Track ARIANE 5 R/B now!


NORAD ID: 39080
Int'l Code: 2013-006C
Perigee: 307.6 km
Apogee: 34,897.7 km
Inclination: 6.0 °
Period: 615.7 minutes
Semi major axis: 23973 km
RCS: 25.327 m2 (large)
Launch date: February 7, 2013
Source: France (FR)
Launch site: FRENCH GUIANA (FRGUI)

Note: This is a ROCKET BODY
aabbcc
Your satellite tracking list
Your tracking list is empty




NASA's NSSDC Master Catalog

Two Line Element Set (TLE):
1 39080U 13006C   18229.45715136  .00000342  00000-0  26072-3 0  9993
2 39080   5.9735 153.7329 7214181  59.4484 352.0255  2.33884242 46579
Source of the keplerian elements: AFSPC